{"data":{"norad_id":66670,"epoch":"2026-05-25T02:46:54.050304Z","epoch_age_seconds":68496,"freshness":"FRESH","line1":"1 66670U 25276E   26145.11590336  .00025400  00000+0  99749-3 0  9994","line2":"2 66670  97.4080 219.4820 0008162 100.5899 259.6259 15.25659254 26965","mean_motion":15.25659254,"eccentricity":0.0008162,"inclination_deg":97.408,"raan_deg":219.482,"arg_perigee_deg":100.5899,"mean_anomaly_deg":259.6259,"bstar":0.00099749,"rev_number":2696,"period_min":94.385426904768,"perigee_km":483.20173438904,"apogee_km":494.41133301345,"semimajor_km":6866.9435337012,"source":"CELESTRAK","updated_at":"2026-05-25T13:38:06.384809Z"}}